Content
SEND FEEDBACK

Daily
Averages
Monthly
Summary
United States of America

MILLER, NEBRASKA


Home > North America > United States > Nebraska
Elevation: 704 meters     Latitude: 40 56N     Longitude: 099 24W

WEATHER
 
SELECT A DAY
Number of Records: 444,980;   Date Range: 10/21/96 - 10/24/14
 
SHARE

PRINT THIS DATA

[ ← Previous Day ]
WEATHER ALMANAC - 31 JANUARY, 2013
[ Next Day → ]
[ °F ]   °C
Weather ElementAverageHighLow
Temperature-7.4 °C-5.1 °C (5:55 am)-10.6 °C (6:35 pm)
Dewpoint-13.8 °C-7.5 °C (6:15 am)-18.7 °C (2:55 pm)
Humidity62.8 %86 % (1:15 am)38 % (2:15 pm)
Barometer1020.7 hPa1025.7 hPa (8:55 pm)1011.9 hPa (12:35 am)
Wind Speed17.4 km/h42.6 km/h (8:55 am)
Wind Gust59.2 km/h (9:35 am)
Weather ElementAverage
Visibility15.9 km
Wind DirectionWSW (248.3 °)

Weather ElementTotal
Precipitation---
Heating Degree Days26.2 (Base 18.3)
Averaged from 66 records on 31 January, 2013
WEATHER CONDITIONS BREAKOUT
WIND DIRECTION BREAKOUT
WEATHER BY HOUR - 31 JANUARY, 2013
[ °F ]   °C
Local TimeTemperatureDewpointHumidityBarometerVisibilityWind DirectionWind SpeedGust SpeedPrecipitationEventsConditions
12:35 AM-7.7 °C-10 °C84 %1011.9 hPa16.1 kmNNE (30°)9.3 km/hScattered Clouds
12:55 AM-8 °C-10.5 °C83 %1011.9 hPa16.1 kmCalmScattered Clouds
1:15 AM-8.9 °C-10.8 °C86 %1011.9 hPa16.1 kmWest (270°)5.6 km/hScattered Clouds
1:35 AM-7.5 °C-9.5 °C86 %1012.2 hPa16.1 kmWNW (300°)9.3 km/hMostly Cloudy
1:55 AM-7 °C-9.2 °C85 %1012.2 hPa16.1 kmNorth (350°)7.4 km/hOvercast
2:15 AM-6.6 °C-9 °C83 %1012.5 hPa16.1 kmNNW (330°)9.3 km/hOvercast
2:35 AM-6.5 °C-9 °C83 %1012.9 hPa16.1 kmNW (310°)7.4 km/hOvercast
2:55 AM-6.2 °C-8.7 °C83 %1012.9 hPa16.1 kmWest (280°)9.3 km/hOvercast
3:15 AM-6 °C-8.5 °C83 %1013.2 hPa16.1 kmNW (320°)9.3 km/hOvercast
3:35 AM-6 °C-8.6 °C82 %1013.2 hPa16.1 kmNNW (340°)7.4 km/hOvercast
3:55 AM-6 °C-8.2 °C85 %1013.5 hPa16.1 kmNorth (350°)5.6 km/hOvercast
4:15 AM-5.7 °C-8.2 °C83 %1013.5 hPa16.1 kmCalmMostly Cloudy
4:35 AM-6 °C-8.4 °C83 %1014.2 hPa16.1 kmWest (270°)7.4 km/hOvercast
4:55 AM-5.5 °C-7.7 °C85 %1014.6 hPa16.1 kmNW (310°)7.4 km/hOvercast
5:15 AM-5.2 °C-8 °C81 %1014.9 hPa16.1 kmNW (310°)7.4 km/hOvercast
5:35 AM-5.3 °C-8 °C82 %1014.9 hPa16.1 kmNNW (330°)5.6 km/hOvercast
5:55 AM-5.1 °C-7.8 °C82 %1014.9 hPa16.1 kmNNW (330°)14.8 km/hMostly Cloudy
6:15 AM-5.1 °C-7.5 °C83 %1015.2 hPa11.3 kmNNW (330°)18.5 km/hOvercast
6:55 AM-5.2 °C-7.7 °C83 %1015.9 hPa6.4 kmNNW (340°)18.5 km/h27.8 km/hSnowLight Snow
7:15 AM-5.3 °C-8.5 °C79 %1016.3 hPa16.1 kmNNW (340°)16.7 km/hOvercast
7:35 AM-5.2 °C-9.3 °C73 %1017.3 hPa16.1 kmNorth (350°)27.8 km/h35.2 km/hOvercast
7:55 AM-5.5 °C-10.6 °C68 %1017.6 hPa16.1 kmNNW (340°)33.3 km/h48.1 km/hOvercast
8:15 AM-5.7 °C-10.9 °C67 %1017.9 hPa16.1 kmNorth (350°)25.9 km/h37 km/hOvercast
8:35 AM-6 °C-11.5 °C66 %1018.6 hPa16.1 kmNorth (350°)33.3 km/h46.3 km/hOvercast
8:55 AM-6.9 °C-13.3 °C61 %1019.6 hPa16.1 kmNNW (330°)42.6 km/h51.8 km/hOvercast
9:15 AM-7.2 °C-13.7 °C60 %1020.7 hPa16.1 kmNNW (330°)37 km/hOvercast
9:35 AM-7.5 °C-14 °C60 %1021 hPa16.1 kmNNW (330°)38.9 km/h59.2 km/hOvercast
9:55 AM-7.3 °C-13.8 °C60 %1022 hPa16.1 kmNNW (330°)33.3 km/h44.4 km/hOvercast
10:15 AM-7.7 °C-12.4 °C70 %1022.4 hPa16.1 kmNorth (10°)25.9 km/hOvercast
10:35 AM-8.2 °C-12.7 °C71 %1023 hPa16.1 kmNNE (20°)20.4 km/hOvercast
10:55 AM-8.1 °C-13.5 °C66 %1023.7 hPa16.1 kmNorth (350°)27.8 km/hScattered Clouds
11:15 AM-7.7 °C-14.8 °C57 %1024 hPa16.1 kmNNW (330°)38.9 km/h46.3 km/hClear
11:35 AM-7.2 °C-15.9 °C51 %1024 hPa16.1 kmNNW (330°)35.2 km/h50.1 km/hScattered Clouds
11:55 AM-7.1 °C-16.3 °C49 %1024 hPa16.1 kmNW (320°)35.2 km/h42.6 km/hScattered Clouds
12:15 PM-6.8 °C-16.2 °C48 %1024 hPa16.1 kmNNW (340°)25.9 km/h35.2 km/hScattered Clouds
12:35 PM-6.8 °C-16 °C49 %1024 hPa16.1 kmNNW (330°)24.1 km/h29.6 km/hOvercast
12:55 PM-7 °C-17.5 °C44 %1024.4 hPa16.1 kmNNW (340°)27.8 km/h40.7 km/hOvercast
1:15 PM-6.6 °C-17.7 °C42 %1024.4 hPa16.1 kmNW (320°)27.8 km/h46.3 km/hScattered Clouds
1:35 PM-6.1 °C-17.4 °C41 %1024 hPa16.1 kmNW (310°)31.5 km/h40.7 km/hScattered Clouds
1:55 PM-6.5 °C-18.6 °C39 %1024 hPa16.1 kmNW (320°)38.9 km/h48.1 km/hMostly Cloudy
2:15 PM-6.1 °C-18.5 °C38 %1024 hPa16.1 kmNNW (330°)29.6 km/h38.9 km/hMostly Cloudy
2:35 PM-6.3 °C-18.5 °C38 %1024 hPa16.1 kmNNW (330°)27.8 km/h40.7 km/hOvercast
2:55 PM-7 °C-18.7 °C40 %1024 hPa16.1 kmNNW (340°)29.6 km/hOvercast
3:15 PM-7 °C-18.5 °C40 %1024 hPa16.1 kmNW (320°)29.6 km/h40.7 km/hOvercast
3:35 PM-7.2 °C-18.5 °C41 %1024.7 hPa16.1 kmNW (310°)25.9 km/h31.5 km/hOvercast
3:55 PM-7 °C-17.7 °C43 %1024.4 hPa16.1 kmWNW (300°)25.9 km/hOvercast
4:15 PM-7.3 °C-18.4 °C42 %1024.7 hPa16.1 kmNNW (340°)22.2 km/hOvercast
4:35 PM-7.7 °C-18.1 °C44 %1024.4 hPa16.1 kmNorth (360°)20.4 km/hMostly Cloudy
4:55 PM-8 °C-17.7 °C46 %1024.7 hPa16.1 kmNNW (340°)18.5 km/hScattered Clouds
5:15 PM-8 °C-17.5 °C47 %1024.4 hPa16.1 kmNNW (340°)16.7 km/hMostly Cloudy
5:35 PM-8.3 °C-17.9 °C47 %1024.4 hPa16.1 kmNNW (340°)14.8 km/hMostly Cloudy
6:15 PM-9.5 °C-17.5 °C53 %1024.7 hPa16.1 kmNNW (340°)9.3 km/hScattered Clouds
6:35 PM-10.6 °C-17.5 °C58 %1024.4 hPa16.1 kmNorth (10°)9.3 km/hClear
7:15 PM-10.4 °C-16.9 °C60 %1024.7 hPa16.1 kmCalmMostly Cloudy
7:35 PM-10.1 °C-17.3 °C56 %1025.1 hPa16.1 kmCalmMostly Cloudy
7:55 PM-10.3 °C-16.9 °C59 %1025.1 hPa16.1 kmCalmMostly Cloudy
8:15 PM-10.1 °C-16.4 °C61 %1025.4 hPa16.1 kmCalmOvercast
8:35 PM-9.7 °C-17.6 °C53 %1025.4 hPa16.1 kmENE (60°)5.6 km/hOvercast
8:55 PM-9.7 °C-16.6 °C58 %1025.7 hPa16.1 kmCalmOvercast
9:15 PM-9.6 °C-17.1 °C55 %1025.7 hPa16.1 kmCalmOvercast
9:35 PM-9.5 °C-17 °C55 %1025.7 hPa16.1 kmESE (110°)7.4 km/hOvercast
9:55 PM-9.8 °C-16.5 °C59 %1025.7 hPa16.1 kmSE (140°)9.3 km/hOvercast
10:15 PM-9.8 °C-16.6 °C58 %1025.7 hPa16.1 kmSE (130°)7.4 km/hOvercast
10:35 PM-10 °C-16.2 °C61 %1025.7 hPa16.1 kmSE (140°)9.3 km/hOvercast
11:15 PM-10 °C-15.6 °C64 %1025.1 hPa16.1 kmSSE (160°)9.3 km/hOvercast
11:35 PM-10 °C-15.4 °C65 %1025.1 hPa16.1 kmSouth (180°)9.3 km/hOvercast
Hourly data recorded from KLXN, located 0 kilometers away from Miller, Nebraska







STORIES FROM OUR PARTNERS